[[{"header":{"parameterUnit":"m.s-1","parameterCategory":1,"la1":30.2991,"la2":30.254,"lo1":-89.0895,"lo2":-89.0444,"dy":0.0017,"dx":0.0017,"nx":28,"ny":28,"refTime":"2024-09-02T21:00:00:Z","depth":0,"parameterNumber":2,"parameterNumberName":"U-component_of_WINDS"},"data":[0,0,0,0,0,0,0,0,0,0,0,0,0,0,0,0,0,0,0,0,0,0,0,0,0,0,0,0,0,0,0,0,0,0,0,0,0,0,0,0,0,0,0,0,0,0,0,0,0,0,0,0,0,0,0,0,0,0,-1.5994,-1.5994,0,-1.5967,-1.5967,-1.5966,-1.5921,-1.592,-1.5919,-1.5919,-1.5892,-1.5892,-1.5892,0,0,0,0,0,0,0,0,0,0,0,0,0,-1.6008,-1.6008,-1.5994,-1.5994,-1.5994,-1.5967,-1.5967,-1.5966,-1.5921,-1.592,-1.5919,-1.5918,-1.5892,-1.5892,-1.5892,0,0,0,0,0,0,0,0,0,0,0,0,0,-1.5994,-1.6008,-1.5994,-1.5968,-1.5965,-1.5967,-1.5967,-1.5966,-1.5921,-1.592,-1.5919,-1.5918,-1.5892,-1.5892,-1.5892,-1.5918,0,0,-1.5892,-1.5892,0,0,0,0,0,0,0,0,-1.5994,-1.5993,-1.5972,-1.597,-1.5967,-1.5946,-1.5962,-1.595,-1.5922,-1.5938,-1.5918,-1.5917,-1.5911,-1.5909,-1.5907,-1.5917,-1.5915,-1.5892,-1.5892,-1.5892,-1.5892,0,0,0,0,0,0,0,-1.5995,-1.5994,-1.5984,-1.5972,-1.5969,-1.5958,-1.5954,-1.5959,-1.5932,-1.5937,-1.5933,-1.5931,-1.5909,-1.5907,-1.5906,-1.5915,-1.5892,-1.5892,-1.5892,-1.5892,-1.5945,-1.5946,0,0,0,0,0,0,-1.6,-1.5995,-1.5984,-1.5983,-1.5978,-1.5958,-1.5954,-1.5954,-1.5932,-1.5927,-1.5932,-1.5928,-1.5907,-1.5906,-1.5905,-1.5935,-1.5892,-1.5892,-1.5892,-1.5944,-1.5945,-1.5947,0,0,0,0,0,0,-1.6001,-1.6,-1.5986,-1.5988,-1.5985,-1.5959,-1.5959,-1.5954,-1.5952,-1.5928,-1.5923,-1.5934,-1.5906,-1.5905,-1.5915,-1.5933,-1.5892,-1.5892,-1.5942,-1.5944,-1.5946,-1.5994,0,0,0,0,0,0,-1.6001,-1.6,-1.601,-1.5989,-1.5985,-1.5996,-1.596,-1.5955,-1.5952,-1.5948,-1.5929,-1.5925,-1.5905,-1.5915,-1.5915,-1.5932,-1.5893,-1.594,-1.5943,-1.5945,-1.5991,-1.5997,-1.6003,0,0,0,0,0,-1.6002,-1.6024,-1.601,-1.6009,-1.5997,-1.5997,-1.5995,-1.5972,-1.5954,-1.5963,-1.5948,-1.5926,-1.5931,-1.5916,-1.5916,-1.5934,-1.5939,-1.5942,-1.5945,-1.5988,-1.5996,-1.6003,0,0,0,0,0,0,-1.6049,-1.6021,-1.6005,-1.6022,-1.6012,-1.599,-1.6001,-1.5981,-1.5977,-1.5973,-1.5944,-1.594,-1.5955,-1.5945,-1.593,-1.5958,-1.5931,-1.5934,-1.5964,-1.5972,-1.5978,-1.598,-1.5893,0,0,0,0,0,-1.6061,-1.6063,-1.6039,-1.6056,-1.6052,-1.6027,-1.6027,-1.6009,-1.5998,-1.5994,-1.5979,-1.597,-1.5969,-1.597,-1.5968,-1.5988,-1.5984,-1.6,-1.6006,-1.6012,-1.6015,-1.6026,-1.6033,-1.5956,-1.5956,-1.5956,0,0,-1.6087,-1.6072,-1.6075,-1.6065,-1.6055,-1.6059,-1.6024,-1.6029,-1.6032,-1.5995,-1.6004,-1.5993,-1.598,-1.5996,-1.6002,-1.5988,-1.6035,-1.6015,-1.602,-1.602,-1.603,-1.6037,-1.6044,-1.5958,-1.5958,-1.5958,0,0,-1.6135,-1.6123,-1.6136,-1.6127,-1.6113,-1.6097,-1.61,-1.608,-1.6071,-1.6079,-1.6052,-1.6054,-1.6054,-1.6046,-1.6042,-1.6087,-1.6067,-1.6087,-1.612,-1.6131,-1.6137,-1.6142,-1.6159,-1.6166,-1.609,-1.609,-1.609,0,-1.6169,-1.6173,-1.6146,-1.6153,-1.6149,-1.6115,-1.6128,-1.6121,-1.6107,-1.6106,-1.609,-1.6089,-1.6078,-1.6092,-1.6103,-1.61,-1.6103,-1.609,-1.6138,-1.6143,-1.6148,-1.6164,-1.617,-1.6093,-1.6093,-1.6092,-1.6092,0,-1.6215,-1.6218,-1.623,-1.6218,-1.6215,-1.6225,-1.62,-1.6201,-1.6184,-1.6169,-1.6178,-1.6163,-1.6158,-1.616,-1.6143,-1.6171,-1.6163,-1.6143,-1.6116,-1.6158,-1.6173,-1.6178,-1.6097,-1.6096,-1.6095,-1.6094,0,0,-1.6294,-1.6265,-1.627,-1.6264,-1.6246,-1.6248,-1.6256,-1.6251,-1.6253,-1.6244,-1.6251,-1.6251,-1.6232,-1.6228,-1.6209,-1.6219,-1.6256,-1.6197,-1.6197,-1.621,-1.6288,-1.6304,-1.6312,-1.6242,-1.6243,-1.6244,-1.6289,0,-1.6339,-1.6352,-1.6328,-1.6347,-1.635,-1.6317,-1.6324,-1.6314,-1.63,-1.6301,-1.6285,-1.6286,-1.6261,-1.6258,-1.6266,-1.625,-1.6272,-1.6246,-1.6249,-1.625,-1.6255,-1.6319,-1.6336,-1.638,-1.6295,-1.6296,-1.6296,0,-1.6395,-1.6389,-1.6408,-1.6388,-1.6389,-1.6396,-1.6389,-1.6389,-1.6377,-1.6366,-1.6361,-1.6339,-1.6346,-1.6319,-1.6329,-1.6312,-1.6312,-1.6304,-1.6305,-1.6306,-1.6277,-1.6323,-1.6393,-1.6401,-1.6305,-1.6304,-1.6303,0,-1.6452,-1.6448,-1.6459,-1.6455,-1.6432,-1.6438,-1.6429,-1.6415,-1.6413,-1.6407,-1.6406,-1.64,-1.6398,-1.6394,-1.6372,-1.6354,-1.6385,-1.6356,-1.6377,-1.6378,-1.6386,-1.6387,-1.6459,-1.6384,-1.6383,-1.6383,-1.6383,0,-1.6507,-1.652,-1.6485,-1.6492,-1.6506,-1.6478,-1.6492,-1.648,-1.6468,-1.6472,-1.6442,-1.6447,-1.6416,-1.6418,-1.64,-1.6411,-1.641,-1.6402,-1.6398,-1.6406,-1.6407,-1.6406,-1.6403,-1.6385,-1.6385,-1.6384,-1.6384,0,-1.6574,-1.6551,-1.6561,-1.6538,-1.6532,-1.6544,-1.6524,-1.653,-1.6514,-1.6519,-1.6519,-1.6494,-1.6494,-1.647,-1.6466,-1.6454,-1.6473,-1.6462,-1.6478,-1.6475,-1.6498,-1.6497,-1.6574,-1.6584,-1.6501,-1.6501,-1.6502,0,-1.6611,-1.662,-1.6598,-1.6599,-1.6591,-1.6592,-1.659,-1.6562,-1.6561,-1.6548,-1.6555,-1.6553,-1.655,-1.6551,-1.6533,-1.6529,-1.6519,-1.6546,-1.6518,-1.6526,-1.6521,-1.6521,-1.6522,-1.6553,-1.6554,-1.6554,-1.6555,0,-1.668,-1.6668,-1.6666,-1.666,-1.6658,-1.6652,-1.6644,-1.6646,-1.6616,-1.6616,-1.6616,-1.6613,-1.6608,-1.6607,-1.6599,-1.659,-1.6568,-1.6564,-1.6569,-1.6578,-1.6587,-1.6584,-1.6496,-1.6562,-1.6562,-1.6561,-1.6561,-1.6561,-1.6734,-1.6741,-1.6727,-1.6726,-1.6717,-1.671,-1.6714,-1.6698,-1.6697,-1.6691,-1.6674,-1.6677,-1.6663,-1.6651,-1.6644,-1.6646,-1.6632,-1.6639,-1.6641,-1.6644,-1.6649,-1.6585,-1.6644,-1.6644,-1.6643,-1.6643,-1.6643,0,-1.6803,-1.6792,-1.6791,-1.6781,-1.678,-1.6758,-1.6748,-1.6749,-1.6751,-1.6741,-1.6738,-1.6737,-1.6735,-1.6716,-1.6712,-1.6717,-1.6707,-1.6717,-1.6717,-1.6716,-1.666,-1.6657,-1.6725,-1.6725,-1.6725,-1.6725,-1.6725,-1.6725,-1.6839,-1.685,-1.6836,-1.6842,-1.6831,-1.6833,-1.6829,-1.6823,-1.6814,-1.6815,-1.6813,-1.68,-1.6787,-1.6781,-1.6778,-1.6773,-1.6773,-1.6787,-1.6778,-1.6727,-1.672,-1.6712,-1.6709,-1.6787,-1.6787,-1.6834,-1.6834,-1.6835]},{"header":{"parameterUnit":"m.s-1","parameterCategory":1,"la1":30.2991,"la2":30.254,"lo1":-89.0895,"lo2":-89.0444,"dy":0.0017,"dx":0.0017,"nx":28,"ny":28,"refTime":"2024-09-02T21:00:00:Z","depth":0,"parameterNumber":3,"parameterNumberName":"V-component_of_WINDS"},"data":[0,0,0,0,0,0,0,0,0,0,0,0,0,0,0,0,0,0,0,0,0,0,0,0,0,0,0,0,0,0,0,0,0,0,0,0,0,0,0,0,0,0,0,0,0,0,0,0,0,0,0,0,0,0,0,0,0,0,-3.3874,-3.3875,0,-3.3912,-3.3913,-3.3913,-3.3887,-3.3886,-3.3885,-3.3884,-3.3918,-3.392,-3.3922,0,0,0,0,0,0,0,0,0,0,0,0,0,-3.3776,-3.3778,-3.3874,-3.3875,-3.3875,-3.3912,-3.3913,-3.3913,-3.3887,-3.3886,-3.3884,-3.3883,-3.3918,-3.392,-3.3922,0,0,0,0,0,0,0,0,0,0,0,0,0,-3.3816,-3.3778,-3.3874,-3.3867,-3.3867,-3.3912,-3.3913,-3.3913,-3.3887,-3.3886,-3.3884,-3.3882,-3.3917,-3.392,-3.3923,-3.3976,0,0,-3.3932,-3.3933,0,0,0,0,0,0,0,0,-3.3814,-3.382,-3.3867,-3.3867,-3.3867,-3.3893,-3.389,-3.3934,-3.3888,-3.3879,-3.3884,-3.3882,-3.3911,-3.3914,-3.3925,-3.3978,-3.3979,-3.3932,-3.3934,-3.3935,-3.3936,0,0,0,0,0,0,0,-3.3811,-3.3818,-3.3889,-3.3868,-3.3868,-3.386,-3.3864,-3.3899,-3.3904,-3.388,-3.3878,-3.3883,-3.3911,-3.3922,-3.3926,-3.398,-3.3932,-3.3935,-3.3937,-3.3938,-3.4079,-3.4081,0,0,0,0,0,0,-3.381,-3.3816,-3.3888,-3.389,-3.3836,-3.3864,-3.3868,-3.3886,-3.3904,-3.3905,-3.3885,-3.3882,-3.3918,-3.3922,-3.3927,-3.3992,-3.3935,-3.3938,-3.394,-3.4077,-3.408,-3.4082,0,0,0,0,0,0,-3.3808,-3.3816,-3.3886,-3.3853,-3.3861,-3.3867,-3.3888,-3.3888,-3.39,-3.3908,-3.3908,-3.3896,-3.3917,-3.3923,-3.3965,-3.3993,-3.3939,-3.3942,-3.4075,-3.4078,-3.4081,-3.4121,0,0,0,0,0,0,-3.3805,-3.3816,-3.3837,-3.3853,-3.3863,-3.3925,-3.389,-3.389,-3.3906,-3.3902,-3.3918,-3.3919,-3.3916,-3.396,-3.3968,-3.3996,-3.3944,-3.4072,-3.4076,-3.408,-3.4118,-3.4125,-3.4132,0,0,0,0,0,-3.3801,-3.3846,-3.3838,-3.3847,-3.389,-3.3926,-3.3932,-3.3928,-3.3908,-3.3929,-3.3934,-3.3919,-3.3988,-3.3965,-3.3973,-3.4002,-3.4071,-3.4075,-3.4079,-3.4114,-3.4124,-3.4132,0,0,0,0,0,0,-3.383,-3.3848,-3.3839,-3.3891,-3.3908,-3.3922,-3.3948,-3.3938,-3.396,-3.3956,-3.3949,-3.3953,-3.3997,-3.4003,-3.3977,-3.4055,-3.4026,-3.4032,-3.405,-3.4059,-3.4066,-3.4064,-3.3947,0,0,0,0,0,-3.3843,-3.3873,-3.3885,-3.3929,-3.3938,-3.3942,-3.3957,-3.3954,-3.397,-3.3977,-3.3985,-3.4,-3.4026,-3.4042,-3.4066,-3.4118,-3.4121,-3.4142,-3.4149,-3.4155,-3.4161,-3.419,-3.42,-3.4096,-3.4096,-3.4096,0,0,-3.3869,-3.3882,-3.39,-3.3935,-3.3948,-3.3978,-3.3948,-3.398,-3.4002,-3.3981,-3.4022,-3.4029,-3.4045,-3.4093,-3.4114,-3.41,-3.419,-3.4161,-3.4166,-3.4168,-3.4196,-3.4205,-3.4214,-3.4099,-3.4098,-3.4098,0,0,-3.3931,-3.3944,-3.3983,-3.3997,-3.4017,-3.4019,-3.4028,-3.4045,-3.4049,-3.409,-3.4075,-3.41,-3.4144,-3.4157,-3.417,-3.4238,-3.4225,-3.4246,-3.4284,-3.4312,-3.4321,-3.4328,-3.4353,-3.4363,-3.4251,-3.4252,-3.4252,0,-3.396,-3.4007,-3.4003,-3.4038,-3.4054,-3.4038,-3.4077,-3.4089,-3.4115,-3.4126,-3.411,-3.4166,-3.4175,-3.4227,-3.4244,-3.4254,-3.4264,-3.4245,-3.432,-3.4327,-3.4334,-3.4358,-3.4368,-3.4254,-3.4254,-3.4254,-3.4253,0,-3.4042,-3.4074,-3.4102,-3.4131,-3.4149,-3.4186,-3.4187,-3.4207,-3.4201,-3.4205,-3.4247,-3.4259,-3.4286,-3.4297,-3.4291,-3.4348,-3.4338,-3.4321,-3.4291,-3.4346,-3.4369,-3.4378,-3.4258,-3.4257,-3.4256,-3.4255,0,0,-3.4123,-3.4151,-3.4161,-3.4175,-3.4196,-3.422,-3.4256,-3.4283,-3.43,-3.4319,-3.4348,-3.4386,-3.4371,-3.4385,-3.438,-3.4405,-3.4461,-3.4385,-3.4385,-3.44,-3.4525,-3.4538,-3.4549,-3.4452,-3.4453,-3.4455,-3.4524,0,-3.4188,-3.4253,-3.4251,-3.431,-3.434,-3.4326,-3.4356,-3.4373,-3.4377,-3.4402,-3.4406,-3.4434,-3.4411,-3.442,-3.4444,-3.4449,-3.4486,-3.4444,-3.4479,-3.448,-3.4477,-3.4561,-3.4575,-3.464,-3.4532,-3.4534,-3.4535,0,-3.4273,-3.4297,-3.4359,-3.4378,-3.439,-3.4419,-3.4444,-3.4469,-3.4486,-3.4488,-3.4505,-3.4496,-3.4531,-3.4501,-3.4549,-3.4521,-3.4535,-3.454,-3.4542,-3.4546,-3.4512,-3.4568,-3.466,-3.467,-3.4549,-3.4548,-3.4547,0,-3.4328,-3.4375,-3.4419,-3.4431,-3.4453,-3.4474,-3.4483,-3.45,-3.4517,-3.4539,-3.455,-3.4575,-3.4588,-3.4608,-3.4606,-3.4584,-3.4656,-3.4624,-3.4658,-3.4658,-3.4674,-3.4673,-3.4771,-3.4682,-3.4682,-3.4681,-3.4681,0,-3.4401,-3.444,-3.4445,-3.4472,-3.4515,-3.4513,-3.4556,-3.4563,-3.4578,-3.4606,-3.4593,-3.462,-3.4616,-3.4641,-3.464,-3.4681,-3.4687,-3.4689,-3.4688,-3.4691,-3.4691,-3.4701,-3.4696,-3.4684,-3.4683,-3.4683,-3.4682,0,-3.447,-3.4474,-3.4522,-3.454,-3.4545,-3.4577,-3.4592,-3.4617,-3.4621,-3.4656,-3.4664,-3.467,-3.47,-3.47,-3.4734,-3.4733,-3.4783,-3.4777,-3.4778,-3.4777,-3.4811,-3.4809,-3.4919,-3.4934,-3.4834,-3.4835,-3.4836,0,-3.4517,-3.4547,-3.4569,-3.4588,-3.46,-3.463,-3.4648,-3.4646,-3.4665,-3.4689,-3.4711,-3.4741,-3.4764,-3.4812,-3.4819,-3.4844,-3.4839,-3.4876,-3.4843,-3.4845,-3.4841,-3.484,-3.4843,-3.4883,-3.4884,-3.4885,-3.4886,0,-3.46,-3.4601,-3.4629,-3.4658,-3.468,-3.4702,-3.4722,-3.4738,-3.4739,-3.476,-3.4792,-3.4811,-3.4846,-3.4875,-3.49,-3.4909,-3.4898,-3.4896,-3.4906,-3.4909,-3.4909,-3.4911,-3.4797,-3.4894,-3.4893,-3.4892,-3.4892,-3.4892,-3.466,-3.4687,-3.4708,-3.4739,-3.4754,-3.4774,-3.48,-3.4807,-3.4834,-3.4865,-3.4861,-3.4897,-3.4914,-3.4947,-3.4958,-3.4985,-3.4972,-3.4985,-3.4989,-3.4992,-3.4997,-3.4904,-3.4989,-3.4989,-3.4989,-3.4989,-3.4988,0,-3.4744,-3.4757,-3.4786,-3.4816,-3.4841,-3.4829,-3.4851,-3.4872,-3.4904,-3.4922,-3.4946,-3.4983,-3.5011,-3.502,-3.5048,-3.5068,-3.5063,-3.5075,-3.5074,-3.5076,-3.5006,-3.4996,-3.5078,-3.5078,-3.5078,-3.5078,-3.5078,-3.5078,-3.4791,-3.4836,-3.484,-3.4893,-3.4905,-3.4941,-3.4955,-3.4973,-3.4987,-3.5029,-3.5054,-3.506,-3.5074,-3.5103,-3.5129,-3.513,-3.5141,-3.5156,-3.5155,-3.509,-3.5081,-3.5072,-3.5063,-3.5158,-3.5158,-3.5223,-3.5224,-3.5225]}]]